Wind_Speed
31 33 39 31 33 34 32 30 27 30 26 30 37 41 40 34 32 29 30 30 32 31 25 30 30 35 37 41 41 39 39 37 37 35 30 27 25 25 24 24 23 22 20 20
29 39 29 31 30 29 31 33 36 34 32 33 38 47 46 43 43 34 35 34 32 34 31 31 30 34 38 39 41 41 40 39 37 34 31 30 29 29 26 25 24 22 21 21
33 28 16 25 32 31 33 34 33 31 31 35 38 53 47 45 42 36 32 36 35 34 34 35 35 34 36 40 41 43 40 38 37 35 35 34 34 29 27 26 25 23 22 20
30 34 33 33 31 23 33 32 29 29 26 19 19 15 42 40 41 37 29 28 25 29 32 36 39 39 38 36 38 38 40 39 38 37 38 37 31 28 29 29 26 24 22 22
29 22 21 32 36 31 28 27 21 17 18 23 28 14 32 31 38 31 19 20 23 28 33 28 29 39 37 35 34 36 36 39 40 40 39 36 33 32 32 29 27 25 23 24
39 31 26 26 23 25 31 24 21 21 16 9 22 16 55 31 36 28 21 21 27 31 30 29 32 30 39 38 37 37 38 38 39 39 38 36 34 34 32 30 28 26 25 25
39 41 39 33 27 23 25 18 2 2 2 8 8 16 44 6 14 15 17 16 15 17 20 24 28 27 30 37 38 39 40 40 40 40 39 37 35 35 31 30 28 27 27 26
20 11 33 40 40 31 30 29 13 8 5 4 10 15 25 14 15 23 26 26 23 20 16 14 14 19 23 26 32 37 38 37 38 38 34 33 33 33 30 29 29 29 29 28
15 17 17 25 31 37 24 34 28 7 3 2 9 21 33 25 18 17 17 15 14 15 15 15 15 13 18 24 25 27 26 27 27 25 25 26 26 27 27 28 30 31 29 29
23 12 17 26 24 32 30 23 15 17 3 5 8 15 23 13 10 19 24 22 21 22 22 17 15 16 16 20 23 23 24 22 21 20 20 21 23 26 28 30 31 31 31 29
39 22 14 25 29 35 35 31 18 14 12 5 2 9 14 9 17 18 17 18 19 13 10 12 15 15 16 19 24 25 23 21 20 18 18 19 22 25 29 30 31 30 30 29
35 14 22 27 19 31 37 38 40 14 8 18 9 23 4 5 2 13 13 12 9 6 7 9 12 16 16 19 23 24 24 22 17 14 13 14 19 23 27 29 29 30 30 30
22 18 10 7 18 26 30 43 39 42 19 28 11 15 9 31 30 21 17 18 11 9 12 14 14 14 16 20 24 26 24 17 14 13 11 12 17 23 27 29 30 31 31 31
33 34 28 20 20 21 30 42 43 43 22 40 34 44 12 12 11 15 21 18 12 6 4 2 4 11 20 25 26 26 26 24 22 23 24 23 23 23 27 31 33 33 33 33
34 33 35 47 44 35 21 21 20 40 52 27 56 47 46 30 15 10 15 14 15 12 12 16 14 9 13 27 31 32 32 32 32 35 34 33 32 31 31 33 34 34 34 34
43 29 36 40 43 49 55 50 50 46 47 48 63 48 26 24 23 28 29 27 27 30 30 30 29 28 26 24 25 28 31 35 38 40 39 38 39 37 34 34 34 34 35 33
36 40 35 37 45 40 24 51 60 53 55 55 47 52 46 44 38 37 39 41 42 40 43 44 43 41 38 38 40 39 38 37 36 36 37 42 43 39 35 33 34 34 35 32
23 19 29 22 32 20 25 35 33 34 40 55 57 59 52 48 40 43 44 46 50 48 49 49 47 48 47 43 43 49 48 44 41 41 43 47 47 43 39 36 35 36 35 32
36 35 16 8 12 8 8 14 23 27 31 35 36 36 38 39 41 44 46 42 36 32 32 32 32 34 39 41 37 40 45 49 56 55 52 50 50 46 41 39 37 37 34 32
20 28 31 19 6 6 11 23 22 14 14 13 22 28 37 42 41 36 35 34 35 36 38 43 44 43 44 44 46 45 42 43 46 48 49 48 46 41 41 40 38 36 34 32
18 14 27 32 21 13 22 19 12 11 8 13 17 22 27 29 31 31 34 34 36 40 44 46 48 49 48 47 45 42 44 43 45 45 49 47 44 42 40 39 39 36 36 34
15 14 18 12 6 2 11 13 18 6 9 13 13 15 17 21 22 26 31 33 34 36 42 47 48 47 44 42 41 39 39 40 43 45 40 43 46 45 42 39 38 38 36 34
13 11 18 10 5 8 9 11 8 11 11 11 13 14 17 20 23 25 26 29 32 33 33 37 38 34 35 37 36 34 34 35 37 39 46 47 48 46 42 39 40 38 35 33
19 14 16 19 2 19 27 25 23 25 24 26 28 27 30 29 32 31 29 26 26 28 30 31 31 29 27 29 32 36 37 38 37 38 37 40 43 40 38 39 39 38 35 32
18 25 28 27 28 19 25 20 20 20 21 20 23 28 32 34 35 39 40 41 40 39 40 37 33 32 30 27 27 30 33 35 35 41 41 40 40 37 38 38 36 34 33 31
28 30 25 22 19 15 18 18 21 23 25 24 21 20 24 30 35 37 38 42 46 44 40 42 42 39 32 30 32 31 31 31 30 36 36 40 42 43 41 38 36 35 34 32
Wind_Direction
242 240 240 253 254 256 261 265 268 271 273 272 277 278 263 270 259 263 264 255 256 259 257 251 246 239 235 233 230 226 227 227 230 236 241 245 249 253 255 258 262 266 272 280
243 246 255 254 252 254 254 260 261 269 272 274 281 280 278 272 272 266 262 258 257 254 254 252 248 243 238 235 231 227 228 228 233 237 239 240 243 250 254 258 260 265 275 282
251 251 253 250 249 249 253 256 263 271 279 280 285 280 273 270 273 273 265 261 260 258 251 248 247 246 244 240 234 228 227 230 235 236 237 240 243 251 254 257 258 264 275 283
257 252 248 250 252 255 255 257 262 268 276 279 277 286 273 271 273 273 269 262 259 254 252 249 245 242 241 241 238 232 229 230 234 237 239 241 245 248 249 252 254 262 273 283
241 247 243 246 250 250 256 258 261 263 265 276 271 267 278 280 274 274 273 264 262 253 250 249 248 243 242 238 236 235 232 232 234 237 240 240 241 245 248 250 252 262 273 282
241 245 244 241 247 243 244 247 260 268 266 269 260 239 278 269 277 282 276 262 251 249 252 250 251 247 237 236 233 230 229 232 234 237 238 240 241 243 246 248 251 263 274 281
240 243 244 244 239 234 230 221 245 284 190 233 193 213 256 243 271 272 272 253 248 254 258 256 252 252 246 241 236 234 233 233 235 239 240 241 240 240 242 244 252 265 273 277
222 241 239 239 236 237 227 210 188 199 200 249 210 238 257 281 264 255 256 250 262 254 248 255 253 247 241 235 237 238 237 238 239 241 243 241 235 235 237 242 253 263 270 276
219 233 231 227 228 224 216 214 221 231 255 311 236 261 270 267 251 240 243 240 258 262 257 252 243 239 235 231 230 229 227 224 224 226 227 225 224 229 237 247 254 260 269 274
238 239 235 223 220 217 216 211 199 210 170 236 260 267 255 263 259 242 248 260 263 254 258 255 246 239 220 219 220 216 209 204 202 204 210 217 227 235 241 246 253 261 266 272
231 230 228 215 217 216 207 208 202 199 216 178 253 254 279 240 226 228 221 239 255 255 253 239 229 228 234 227 218 205 195 194 199 206 216 226 237 243 247 251 255 260 265 270
227 229 242 231 232 221 220 218 208 193 204 221 249 251 198 147 150 213 239 241 223 237 266 286 248 235 228 226 212 201 192 190 191 200 219 240 249 253 255 257 260 261 264 269
223 218 247 255 243 232 224 222 220 220 224 218 178 254 244 247 244 252 256 249 247 275 292 274 261 242 219 218 214 203 198 200 212 223 244 271 276 270 265 262 262 262 265 271
244 229 232 230 236 242 228 236 228 224 227 237 232 241 227 221 239 240 236 242 253 247 216 46 316 250 223 222 220 222 225 238 249 259 265 275 284 284 273 264 261 263 267 272
242 234 236 238 245 235 231 246 241 229 237 234 248 248 247 238 223 252 243 240 233 261 267 290 286 271 252 240 239 242 248 256 266 271 272 275 279 284 279 265 261 262 267 269
234 231 231 237 244 245 252 254 258 257 254 250 249 251 244 250 255 252 242 238 246 253 261 275 269 262 248 251 256 256 257 261 267 267 268 271 276 285 276 265 260 262 266 267
232 235 237 240 247 251 244 246 251 247 245 243 245 253 257 261 267 263 255 256 261 261 260 273 274 270 264 254 244 240 246 245 250 259 263 268 272 279 273 263 260 263 264 259
255 248 240 245 239 228 240 244 248 254 255 250 254 260 267 269 267 266 264 264 263 266 266 265 263 261 261 258 256 252 246 239 238 249 256 259 264 270 270 263 262 263 261 252
264 261 252 249 238 237 202 224 238 235 239 241 246 251 258 253 254 256 261 264 257 252 252 255 262 265 261 259 261 262 259 253 245 246 246 252 259 265 263 260 263 264 252 250
254 251 247 241 248 231 243 235 237 218 228 247 236 241 246 244 250 249 247 245 247 253 258 270 272 273 270 268 268 269 265 261 255 253 257 255 255 257 260 257 260 258 244 249
286 286 242 232 239 243 253 252 242 248 231 245 234 232 234 243 248 247 245 244 247 254 260 263 265 264 263 263 264 264 265 261 258 255 250 248 247 250 255 252 257 242 241 247
296 297 299 317 304 215 322 268 255 194 223 242 248 245 247 252 252 253 253 253 249 249 253 258 258 256 257 259 256 259 260 260 256 253 248 243 240 243 247 248 244 236 241 247
280 255 263 260 300 316 325 358 337 303 302 280 268 261 262 264 264 260 255 255 254 253 252 251 251 252 254 256 259 263 264 258 254 248 241 240 242 242 239 241 234 237 243 246
271 268 312 322 235 305 312 320 318 321 316 313 318 314 313 306 301 298 294 284 274 269 262 256 251 249 255 256 258 260 261 259 254 251 249 244 239 236 228 227 231 236 240 236
265 288 295 294 294 291 306 308 310 306 306 305 308 308 307 306 305 305 304 302 301 300 295 285 266 256 253 255 259 259 258 255 254 251 247 242 233 220 220 226 231 236 234 235
275 278 272 277 277 262 282 287 291 294 296 298 297 292 292 293 295 298 299 302 304 299 295 294 288 275 268 272 270 261 260 259 252 245 236 229 223 218 217 223 228 230 231 236
Height
3048 3048 3042 3051 3050 3051 3052 3049 3047 3047 3048 3043 3039 3032 3036 3037 3035 3035 3036 3038 3037 3037 3043 3043 3045 3047 3050 3053 3057 3061 3064 3069 3072 3074 3078 3081 3083 3082 3083 3083 3084 3083 3083 3082
3042 3034 3044 3044 3045 3044 3045 3043 3039 3042 3042 3039 3033 3020 3024 3025 3023 3029 3028 3028 3030 3031 3033 3036 3037 3038 3041 3045 3050 3054 3058 3061 3065 3068 3071 3073 3074 3076 3077 3077 3077 3077 3077 3076
3032 3033 3035 3036 3037 3037 3037 3036 3037 3038 3036 3033 3027 3009 3015 3016 3015 3018 3019 3019 3020 3022 3024 3027 3028 3030 3033 3037 3041 3045 3051 3055 3058 3061 3062 3064 3065 3069 3070 3071 3070 3071 3071 3070
3026 3026 3028 3029 3030 3034 3030 3032 3034 3034 3035 3029 3027 3008 3005 3008 3007 3010 3012 3012 3012 3014 3015 3017 3019 3021 3024 3030 3034 3039 3043 3047 3050 3052 3054 3056 3060 3063 3064 3065 3064 3065 3065 3064
3017 3016 3019 3020 3021 3027 3025 3028 3029 3029 3029 3026 3018 3022 2990 2999 2997 3001 3005 3005 3005 3007 3008 3008 3010 3013 3018 3022 3026 3032 3036 3038 3041 3043 3047 3050 3053 3055 3057 3059 3059 3059 3059 3058
3008 3011 3012 3014 3015 3017 3018 3023 3026 3027 3027 3023 3012 3020 2967 2992 2991 2994 2995 2997 2998 2998 3000 3001 3003 3005 3009 3013 3017 3022 3026 3030 3033 3035 3039 3042 3046 3047 3050 3052 3053 3053 3053 3053
3000 3000 3003 3007 3009 3010 3011 3018 3024 3029 3029 3014 3007 3009 2969 2986 2989 2990 2991 2991 2991 2992 2993 2995 2997 2999 3002 3006 3010 3013 3018 3021 3025 3027 3030 3035 3038 3040 3044 3046 3047 3048 3047 3046
2990 2992 2992 2994 2998 3003 3005 3007 3009 3020 3019 3005 3003 2989 2973 2980 2985 2985 2984 2986 2987 2988 2989 2990 2991 2992 2995 2999 3002 3006 3010 3014 3017 3019 3024 3028 3032 3035 3038 3040 3041 3041 3041 3040
2983 2983 2983 2985 2987 2995 2996 2998 3003 3002 3003 3004 2989 2977 2972 2976 2979 2981 2981 2982 2983 2983 2984 2986 2987 2989 2990 2993 2997 3000 3004 3007 3010 3015 3018 3021 3025 3029 3032 3033 3035 3035 3035 3034
2976 2977 2977 2979 2982 2985 2986 2991 2999 3000 3005 3007 2980 2974 2968 2971 2974 2976 2977 2978 2978 2978 2979 2982 2984 2985 2986 2988 2991 2995 2999 3003 3008 3011 3014 3017 3021 3023 3025 3025 3028 3029 3028 3028
2968 2970 2969 2971 2969 2971 2977 2979 2985 2987 2985 2983 2983 2965 2964 2965 2967 2969 2971 2973 2974 2974 2975 2977 2979 2981 2983 2985 2988 2991 2996 3000 3004 3007 3011 3013 3015 3017 3018 3019 3021 3021 3021 3021
2960 2962 2961 2962 2961 2964 2966 2966 2971 2972 2975 2974 2970 2953 2962 2963 2965 2967 2970 2971 2972 2973 2973 2974 2976 2979 2981 2984 2987 2990 2993 2997 3001 3003 3006 3008 3009 3011 3012 3013 3014 3014 3014 3014
2955 2954 2957 2956 2959 2956 2954 2956 2962 2963 2964 2961 2966 2947 2952 2961 2965 2967 2968 2968 2970 2971 2971 2972 2973 2976 2979 2982 2985 2988 2991 2994 2996 2998 3000 3002 3004 3005 3005 3006 3006 3006 3006 3006
2943 2937 2942 2945 2944 2947 2947 2946 2952 2957 2958 2947 2949 2945 2951 2955 2960 2962 2962 2964 2967 2968 2969 2971 2973 2975 2978 2980 2983 2985 2988 2989 2990 2992 2993 2995 2997 2998 2997 2997 2998 2998 2998 2997
2931 2928 2930 2933 2936 2940 2940 2942 2943 2947 2946 2949 2934 2942 2947 2953 2955 2957 2959 2960 2962 2964 2965 2966 2969 2972 2975 2978 2980 2981 2983 2984 2984 2984 2984 2987 2988 2988 2988 2988 2988 2989 2989 2988
2924 2920 2921 2921 2924 2928 2927 2931 2936 2937 2936 2939 2932 2932 2938 2944 2948 2952 2955 2952 2952 2953 2954 2956 2956 2959 2963 2967 2971 2973 2975 2976 2976 2975 2976 2977 2978 2978 2978 2978 2979 2979 2980 2980
2911 2912 2913 2910 2915 2917 2913 2917 2917 2921 2924 2926 2925 2922 2934 2936 2942 2941 2941 2941 2941 2943 2944 2946 2947 2949 2950 2954 2956 2955 2958 2960 2962 2964 2965 2966 2967 2968 2968 2968 2969 2970 2971 2971
2904 2904 2906 2903 2908 2898 2898 2904 2907 2909 2914 2918 2917 2921 2923 2925 2927 2927 2927 2930 2933 2934 2936 2937 2937 2938 2938 2939 2941 2943 2946 2947 2948 2950 2953 2955 2956 2957 2958 2958 2960 2960 2961 2962
2896 2898 2900 2899 2895 2892 2893 2894 2896 2898 2901 2902 2906 2911 2912 2913 2916 2916 2917 2918 2919 2922 2924 2925 2926 2926 2927 2927 2928 2930 2932 2935 2935 2935 2938 2942 2944 2946 2947 2948 2950 2951 2952 2953
2888 2890 2892 2893 2888 2885 2886 2888 2888 2889 2892 2893 2896 2900 2902 2902 2903 2906 2906 2908 2910 2911 2912 2913 2914 2913 2914 2915 2916 2917 2919 2920 2921 2925 2928 2930 2932 2934 2936 2938 2939 2940 2942 2944
2883 2884 2880 2880 2880 2880 2880 2882 2882 2887 2890 2886 2888 2890 2891 2893 2892 2893 2895 2897 2898 2900 2902 2903 2903 2903 2903 2903 2903 2904 2905 2907 2908 2910 2912 2915 2917 2920 2924 2926 2927 2930 2932 2934
2887 2886 2882 2877 2873 2873 2872 2874 2880 2882 2880 2881 2883 2884 2884 2883 2882 2882 2884 2885 2887 2889 2889 2890 2891 2892 2892 2892 2893 2893 2893 2894 2896 2898 2899 2900 2903 2905 2910 2913 2916 2919 2922 2925
2884 2882 2882 2884 2879 2875 2875 2876 2876 2877 2878 2877 2878 2878 2878 2876 2874 2875 2877 2877 2877 2877 2878 2878 2878 2880 2880 2881 2880 2881 2882 2882 2884 2885 2886 2887 2889 2892 2897 2901 2905 2909 2913 2915
2878 2876 2875 2876 2874 2871 2872 2872 2871 2870 2872 2873 2873 2872 2871 2871 2869 2868 2867 2869 2868 2868 2868 2870 2870 2869 2870 2870 2869 2869 2871 2872 2873 2876 2876 2876 2877 2881 2885 2890 2895 2899 2903 2906
2874 2873 2872 2871 2870 2869 2869 2869 2869 2869 2869 2869 2868 2867 2865 2864 2865 2862 2860 2859 2860 2859 2859 2859 2859 2859 2859 2860 2859 2858 2860 2862 2863 2864 2865 2866 2867 2871 2876 2881 2886 2891 2895 2897
2867 2867 2867 2867 2866 2865 2866 2865 2865 2863 2862 2862 2860 2860 2858 2856 2855 2853 2852 2850 2851 2852 2852 2851 2847 2846 2848 2848 2849 2849 2850 2852 2853 2853 2855 2858 2860 2861 2865 2871 2876 2880 2884 2887